Regional Weather Roundup
Issued by NWS Wakefield, VA

Home | Current Version | Previous Version | Graphics & Text | Print | Product List | Glossary On
Versions: 1 2 3 4 5 6 7 8 9 10 11 12 13 14 15 16 17 18 19 20 21 22 23 24 25 26 27 28 29 30 31 32 33 34 35 36 37 38 39 40 41 42 43 44 45 46 47 48 49 50
000
ASUS41 KAKQ 070513
RWRAKQ

REGIONAL WEATHER ROUNDUP
NATIONAL WEATHER SERVICE WAKEFIELD VA
1200 AM EST WED DEC 07 2016

Note: "fair" indicates few or no clouds below 12,000 feet with no
significant weather and/or obstructions to visibility. * = Denotes
station may not report precipitation (e.g., rain,snow,etc.),
thunder or fog.

VAZ042-051-052>054-056-070600-
NORTHERN VIRGINIA

CITY           SKY/WX    TMP DP  RH WIND       PRES   REMARKS
WASH NATIONAL  CLOUDY    46  44  93 N10       29.84R
DULLES         DRIZZLE   41  39  93 N7        29.84R FOG
FORT BELVOIR   CLOUDY    44  41  91 NW9       29.84R
QUANTICO       CLOUDY    43  40  89 N12       29.85R
FREDERICKSBRG* CLOUDY    42  42 100 N3        29.82F
STAFFORD*      CLOUDY    41  41 100 N5        29.87S FOG
WARRENTON      CLOUDY    42  37  82 N5        29.83S
CULPEPER*      CLOUDY    42  40  94 CALM      29.86R
MANASSAS*        N/A    N/A N/A N/A MISG        N/A
LEESBURG*      CLOUDY    41  41 100 N5        29.85F FOG
WINCHESTER     CLOUDY    36  36 100 CALM      29.86R FOG
FRONT ROYAL*   CLOUDY    36  36 100 CALM      29.85S
LURAY*         CLOUDY    37  37 100 CALM      29.85F FOG
$$

VAZ048-049-060>072-079>083-070600-
CENTRAL AND SOUTH CENTRAL VIRGINIA

CITY           SKY/WX    TMP DP  RH WIND       PRES   REMARKS
RICHMOND       CLOUDY    43  42  97 NW12      29.82R
CHESTERFIELD*  CLOUDY    45  28  53 NW8       29.84R
PETERSBURG*    CLOUDY    42  41  95 NW6       29.83R
HANOVER        CLOUDY    43  40  89 VRB5      29.84R
TAPPAHANNOCK*  CLOUDY    46  46 100 NW7       29.81R
QUINTON*       CLOUDY    44  44  99 NW7       29.80R
CHARLOTTSVILLE CLOUDY    43  39  86 CALM      29.84R
GORDONSVILLE*  CLOUDY    43  40  91 CALM      29.83S
ORANGE*          N/A     43  43 100 CALM      29.86R
LOUISA*        CLOUDY    45  43  93 N5        29.83R
BUMPASS*       CLOUDY    42  42 100 N5        29.83R
FARMVILLE*     CLOUDY    44  43  97 CALM      29.84S
CREWE*         CLOUDY    42  42 100 NW6       29.85R
FORT PICKETT*  CLOUDY    42  38  88 NW8       29.84R
CHASE CITY*    CLOUDY    42  40  94 W3        29.85S
CLARKSVILLE*   CLOUDY    43  43 100 NW5       29.86R
SOUTH HILL*    CLOUDY    42  42  99 NW5       29.90S
LAWRENCEVILLE* CLOUDY    42  41  95 NW6       29.83S
EMPORIA*       CLOUDY    43  41  93 W7        29.84R
$$

VAZ088>098-070600-
SOUTHEAST VIRGINIA

CITY           SKY/WX    TMP DP  RH WIND       PRES   REMARKS
NORFOLK        CLOUDY    49  47  93 W9        29.74R
VIRGINIA BEACH CLOUDY    49  48  97 NW15G23   29.72R
NORFOLK NAVAL  CLOUDY    49  46  90 NW14G24   29.75R
WEST POINT*    CLOUDY    46  45  97 NW7       29.80R
SALUDA*        CLOUDY    47  47 100 NW8       29.76R
NEWPORT NEWS   CLOUDY    47  45  93 NW10      29.75R
LANGLEY AFB    CLOUDY    47  47  97 NW10      29.73R
FORT EUSTIS    CLOUDY    47  44  91 NW10      29.74R
WILLIAMSBURG*  CLOUDY    46  46 100 NW12      29.78R
HR EXEC AP*    CLOUDY    46  43  87 NW9       29.74S
FRANKLIN*      CLOUDY    45  43  94 W12       29.82R
US460-WAKEFLD  CLOUDY    45  44  97 NW8       29.81R FOG
$$

VAZ020-022-025-037-045-070600-
WEST CENTRAL AND SOUTHWEST VIRGINIA

CITY           SKY/WX    TMP DP  RH WIND       PRES   REMARKS
STAUNTON*      CLOUDY    36  36  99 CALM      29.87R FOG
WAYNESBORO*    CLOUDY    36  35  96 CALM      29.85R
HOT SPRINGS VA NOT AVBL
LYNCHBURG      PTCLDY    35  35 100 CALM      29.86S FOG
DANVILLE       CLEAR     37  37 100 W3        29.87R FOG
SOUTH BOSTON*  CLOUDY    42  40  95 CALM      29.85F
MARTINSVILLE   FOG       34  33  98 CALM      29.90R VSB 1/2
ROANOKE        CLOUDY    40  38  93 VRB5      29.88R
BLACKSBURG     CLOUDY    42  41  98 W6        29.90R
DUBLIN*        CLOUDY    47  46  97 W12G17    29.90R
MARION*        CLOUDY    46  42  86 W16       29.92R
HILLSVILLE*    CLOUDY    44  44 100 NW12G17   29.85S
RICHLANDS*     CLOUDY    42  40  91 NW7G16    29.92S
WISE*          CLOUDY    41  41 100 NW8       29.96R
ABINGDON*      PTCLDY    46  44  93 NW5       29.94R
$$

MDZ021>025-VAZ099-100-070600-
SOUTHERN MARYLAND AND THE DELMARVA PENINSULA

CITY           SKY/WX    TMP DP  RH WIND       PRES   REMARKS
PATUXENT RIVER CLOUDY    47  45  93 NW15      29.78R
BAY BRIDGE APT CLOUDY    45  41  87 N8        29.81R
LEONARDTOWN    CLOUDY    45  43  93 N5        29.80R
DOVER          LGT RAIN  44  44 100 N13       29.74F
GEORGETOWN     CLOUDY    48  48 100 NE12G23   29.73R
EASTON         CLOUDY    46  43  90 NE10      29.81R
CAMBRIDGE      CLOUDY    45  43  93 N9        29.76R
SALISBURY      LGT RAIN  50  48  93 N13       29.69R
OCEAN CITY     LGT RAIN  51  50  96 NE20G29   29.66R
WALLOPS ISLAND CLOUDY    50  50 100 N15G24    29.67R
ACCOMACK*      DRIZZLE   49  49  97 NW13G20   29.68R
$$

NCZ012>017-030>032-070600-
NORTH CENTRAL AND EASTERN NORTH CAROLINA

CITY           SKY/WX    TMP DP  RH WIND       PRES   REMARKS
ROANOKE RAPIDS CLOUDY    43  43 100 W3        29.85R
RALEIGH        CLOUDY    43  41  93 VRB5      29.87R
ELIZABETH CITY CLOUDY    47  46  97 W16G25    29.75R
AHOSKIE*       CLOUDY    43  42  96 NW3       29.84R
EDENTON*       CLOUDY    48  45  89 NW15      29.78S
CURRITUCK*     CLOUDY    49  49 100 W12G25    29.74R FOG
KILL DEVIL HLS CLOUDY    49  49 100 W16G28    29.70R
MANTEO         CLOUDY    48  47  97 NW22G29   29.73R
CAPE HATTERAS  CLOUDY    51  47  86 W16G30    29.75R
TARBORO*       NOT AVBL
GOLDSBORO      CLOUDY    44  44 100 W9        29.84R
WASHINGTON     CLOUDY    45  43  93 NW6G16    29.82R
GREENVILLE     CLOUDY    45  43  93 NW10G17   29.86R
NEW BERN       CLOUDY    48  45  89 W12G18    29.84R
WILMINGTON     CLOUDY    51  49  92 NW9       29.87R
$$

VAZ048-070600-
ELSEWHERE

CITY           SKY/WX    TMP DP  RH WIND       PRES   REMARKS
HARRISBURG PA  CLOUDY    38  37  97 NW7       29.85R FOG
BALTIMORE      DRIZZLE   43  43 100 N6        29.83R FOG
ANNAPOLIS      CLOUDY    46  43  89 N10       29.81R
ANDREWS AFB    CLOUDY    43  41  93 N9        29.81R
PHILADELPHIA   LGT RAIN  43  40  89 NE16      29.79F FOG
HENDERSON NC   CLOUDY    39  38  96 NW5       29.86R
GREENSBORO     CLEAR     37  37 100 W7        29.87R
ROCKY MOUNT    CLOUDY    43  43 100 NW9       29.85R
$$

VAZ100-070600-
MARINE

STATION/POSITION TIME  TEMP    WIND        PRES    WAVE   SWELL
                       AIR SEA DIR/SP/G            HT/PER HT/PER
                 (UTC) (F)     (DEG/KT/KT) (MB)    (FT/S) (FT/S)
BRANDYWINE LGT   0448   47      40/ 22/ 25   N/A
CAPE MAY NJ      0448   49 48   50/  7/ 12 1006.3R
LEWES DE         0442   50 48   40/ 18/ 22 1006.6R
OCEAN-CITY-INLET 0442   50 50   30/ 14/ 25 1005.3R
WACHAPREAGUE VA  0448   50 50  320/  6/ 12 1004.2F
THOMAS POINT MD  0500   45 49   10/ 17/ 19   N/A
GOOSES REEF MD   0500   47 50   40/ 16/ 19 1009.4    3/ 3
COVE POINT MD    0448   46      10/ 12/ 20 1008.8R
SOLOMONS ISLAND  0442   46 50  340/  8/ 11   N/A
BISHOPS HEAD MD  0448   47 46  340/ 11/ 14 1007.1R
PINEY POINT MD   0448          360/ 12/ 14   N/A
POTOMAC MD       0500   47 51  330/ 14/ 16 1007.1    1/ 2
CAMBRIDGE MD     0448   47 47   10/ 11/ 14 1006.9R
LEWISETTA VA     0448   47 48  350/  9/ 13 1008.0R
RAPPAHANNOCK LGT 0448          330/ 28/ 29 1006.2R
STINGRAY PT      0500   48     340/ 16/ 19 1006.9    3/ 3
YORK RVR RNG VA  0448   48     330/ 20/ 23 1006.6R
YORKTOWN VA      0448   48 51  310/ 22/ 24 1007.0R
JAMESTOWN VA     0500   46 52  300/ 16/ 19   N/A
DOMINION TERM VA 0448   48     320/ 18/ 22 1006.9R
KIPTOPEKE VA     0442      52  340/ 27/ 32   N/A
CHES BAY BRIDGE  0448   49 53  310/ 25/ 29 1006.4R
CAPE HENRY VA    0448   50     300/ 26/ 31   N/A
WILLOUBY STN VA  0448   48     310/ 16/ 18 1007.9R
S CRANEY ISL VA  0448   48     300/ 11/ 18 1006.9R
CAPE HENRY BUOY  0442      55                N/A     8/ 9   2/11
CAPE CHARLES BUO 0456      55                N/A     8/10   2/11
OFFSHORE WE BUOY 0451      56                N/A     9/ 9   2/11
64NM E OF VA BCH 0450   55 60  280/ 27/ 37 1001.1R  10/ 9   7/ 9
DUCK PIER NC     0448   49 55  290/ 20/ 28 1005.7R
44100 DUCK FRF   0435      56                N/A     8/ 8   3/11
OREGON INLET NC  0442   50 57  280/ 19/ 28 1005.9R
HATTERAS NC      0448   52 61  280/ 27/ 33 1007.0R
DIAMOND SHLS NC  0450   60 74  290/ 31/ 37 1006.4R   9/ 6   3/15
CAPE LOOKOUT NC  0400   55     290/ 22/ 25 1008.1R
$$



USA.gov is the U.S. government's official web portal to all federal, state and local government web resources and services.